{"data":{"norad_id":65857,"epoch":"2026-09-20T21:25:54.500160Z","epoch_age_seconds":72199,"freshness":"FRESH","line1":"1 65857U 25223D   26263.89299190  .00019821  00000+0  59595-3 0  9997","line2":"2 65857  53.1537 103.8226 0002576 100.9996 259.1296 15.34413230 54147","mean_motion":15.3441323,"eccentricity":0.0002576,"inclination_deg":53.1537,"raan_deg":103.8226,"arg_perigee_deg":100.9996,"mean_anomaly_deg":259.1296,"bstar":0.00059595,"rev_number":5414,"period_min":93.84694890828101,"perigee_km":460.90172782503,"apogee_km":464.42610845806,"semimajor_km":6840.8009181415,"source":"CELESTRAK","updated_at":"2026-09-21T09:00:35.725760Z"}}